Weather Roundup
Issued by NWS Chicago, IL

Home | Current Version | Previous Version | Text Only | Print | Product List | Glossary Off
Versions: 1 2 3 4 5 6 7 8 9 10 11 12 13 14 15 16 17 18 19 20 21 22 23 24 25 26 27 28 29 30 31 32 33 34 35 36 37 38 39 40 41 42 43 44 45 46 47 48 49 50

000
NZUS59 KLOT 291004
HRRLOT

CHICAGO AREA WEATHER ROUNDUP
NATIONAL WEATHER SERVICE CHICAGO/ROMEOVILLE IL
500 AM CDT THU SEP 29 2016

NOTE: "FAIR" INDICATES FEW OR NO CLOUDS BELOW 12,000 FEET WITH NO
SIGNIFICANT WEATHER AND/OR OBSTRUCTIONS TO VISIBILITY.

* THESE STATIONS ARE NOT UNDER NWS QUALITY CONTROL. THEY ALSO MAY NOT
  REPORT WEATHER SUCH AS PRECIPITATION OR FOG.

ILZ005-006-012>014-019>023-291100-
NORTHEAST ILLINOIS

CITY           SKY/WX    TMP DP  RH WIND       PRES   REMARKS
OHARE          CLOUDY    62  56  80 NE15G29   30.09R
MIDWAY         CLOUDY    64  56  75 N16G25    30.07R
AURORA         CLOUDY    61  55  81 N14       30.11R
LANSING*       DRIZZLE   60  58  92 E12G22    30.07R
WAUKEGAN       CLOUDY    60  56  86 N14G22    30.12R
DUPAGE AIRPORT CLOUDY    60  55  83 N20G26    30.10R
WHEELING       CLOUDY    62  56  80 N10G26    30.12R
KANKAKEE*      CLOUDY    59  57  93 N9        30.07R
NORTHERLY ISL    N/A     62  56  80 NE20        N/A
$$

WIZ051-052-058>065-066-070>072-291100-
SOUTHEAST WISCONSIN

CITY           SKY/WX    TMP DP  RH WIND       PRES   REMARKS
MILWAUKEE      MOCLDY    60  56  86 N20G32    30.18R
KENOSHA*       CLOUDY    60  57  89 N16G25    30.15R
RACINE*        CLOUDY    57  55  93 N20       30.17R
WAUKESHA       CLOUDY    55  52  88 N16G25    30.21R
WEST BEND      CLOUDY    55  52  88 NE13G20   30.23R
$$

INZ001>003-010>013-019-020-291100-
NORTHWEST INDIANA

CITY           SKY/WX    TMP DP  RH WIND       PRES   REMARKS
GARY*          LGT RAIN  61  57  88 NE14G33   30.07R
MICHIGAN CITY* NOT AVBL
RENSSELAER*    NOT AVBL
VALPARAISO     LGT RAIN  56  54  93 NE7       30.06R
$$

LMZ740>746-291100-
SOUTHERN LAKE MICHIGAN

STATION/POSITION TIME  SKY/WX   TEMP WIND        PRES    VSBY
                                AIR  DIR/SP/G
                 (UTC)          (F)  (DEG/KT/KT) (MB)    (MI)
HARRISON CRIB    0940            65   40/ 25/ 28   N/A
BURNHAM HARBOR   1000            62   40/ 19       N/A
CALUMET HARBOR   0930            63   20/ 16/ 22 1017.7R
BURNS HARBOR     0940            61   60/ 20/ 24 1017.9R
MICHIGAN CITY    0940            59   40/ 19/ 21   N/A
$$

ABBREVIATIONS USED IN REMARKS
   TC - TEMPERATURE IN CELSIUS
  WCI - WIND CHILL INDEX
   HX - HEAT INDEX
  VSB - VISIBILITY
$$




USA.gov is the U.S. government's official web portal to all federal, state and local government web resources and services.